Previsão horária em Cerkno

Hoje, 31 Julho, Sábado

Tempo Temperatura Precipitação Vento Pressão Humidade
00:00 +19°C° 0.1 mm 1 m/s 702 mmHg 91%
01:00 +19°C° 0.1 mm 1 m/s 702 mmHg 91%
02:00 +19°C° 0.4 mm 1 m/s 702 mmHg 90%
03:00 +19°C° 0.4 mm 1 m/s 701 mmHg 90%
04:00 +18°C° 0.4 mm 1 m/s 701 mmHg 90%
05:00 +20°C° 0.2 mm 1 m/s 701 mmHg 87%
06:00 +21°C° 0.2 mm 1 m/s 702 mmHg 83%
07:00 +20°C° 0.2 mm 0 m/s 702 mmHg 80%
08:00 +24°C° 0.2 mm 1 m/s 702 mmHg 71%
09:00 +26°C° 0.2 mm 1 m/s 702 mmHg 63%
10:00 +27°C° 0.2 mm 1 m/s 703 mmHg 54%
11:00 +28°C° 0.2 mm 2 m/s 703 mmHg 51%
12:00 +29°C° 0.2 mm 2 m/s 702 mmHg 47%
13:00 +30°C° 0.2 mm 3 m/s 702 mmHg 43%
14:00 +29°C° 0.1 mm 3 m/s 702 mmHg 45%
15:00 +29°C° 0.1 mm 3 m/s 702 mmHg 46%
16:00 +29°C° 0.1 mm 3 m/s 702 mmHg 48%
17:00 +27°C° 0 mm 2 m/s 702 mmHg 57%
18:00 +25°C° 0 mm 1 m/s 701 mmHg 66%
19:00 +21°C° 0 mm 0 m/s 701 mmHg 76%
20:00 +22°C° 0.1 mm 1 m/s 701 mmHg 78%
21:00 +21°C° 0.1 mm 1 m/s 701 mmHg 80%
22:00 +19°C° 0.1 mm 1 m/s 702 mmHg 83%
23:00 +19°C° 0.2 mm 1 m/s 701 mmHg 85%

Amanhã, 1 Agosto, Domingo

Tempo Temperatura Precipitação Vento Pressão Humidade
00:00 +19°C° 0.2 mm 1 m/s 701 mmHg 87%
01:00 +18°C° 0.2 mm 1 m/s 701 mmHg 89%
02:00 +18°C° 0.4 mm 1 m/s 700 mmHg 91%
03:00 +18°C° 0.4 mm 1 m/s 700 mmHg 93%
04:00 +16°C° 0.4 mm 1 m/s 700 mmHg 95%
05:00 +18°C° 0.9 mm 1 m/s 700 mmHg 95%
06:00 +19°C° 0.9 mm 1 m/s 700 mmHg 95%
07:00 +19°C° 0.9 mm 1 m/s 700 mmHg 95%
08:00 +21°C° 0.6 mm 1 m/s 700 mmHg 90%
09:00 +21°C° 0.6 mm 2 m/s 700 mmHg 86%
10:00 +24°C° 0.6 mm 2 m/s 700 mmHg 81%
11:00 +23°C° 1 mm 2 m/s 700 mmHg 83%
12:00 +23°C° 1 mm 2 m/s 700 mmHg 85%
13:00 +23°C° 1 mm 2 m/s 700 mmHg 87%
14:00 +24°C° 1.3 mm 2 m/s 700 mmHg 84%
15:00 +24°C° 1.3 mm 2 m/s 699 mmHg 81%
16:00 +24°C° 1.3 mm 2 m/s 699 mmHg 79%
17:00 +21°C° 2.4 mm 2 m/s 699 mmHg 84%
18:00 +19°C° 2.4 mm 2 m/s 699 mmHg 88%
19:00 +17°C° 2.4 mm 2 m/s 699 mmHg 93%
20:00 +17°C° 0.2 mm 2 m/s 699 mmHg 93%
21:00 +16°C° 0.2 mm 1 m/s 700 mmHg 93%
22:00 +15°C° 0.2 mm 1 m/s 700 mmHg 93%
23:00 +15°C° 0.4 mm 1 m/s 700 mmHg 94%

Depois de amanhã, 2 Agosto, Segunda-feira

Tempo Temperatura Precipitação Vento Pressão Humidade
00:00 +15°C° 0.4 mm 1 m/s 700 mmHg 94%
01:00 +14°C° 0.4 mm 1 m/s 701 mmHg 95%
02:00 +14°C° 0.3 mm 1 m/s 701 mmHg 95%
03:00 +14°C° 0.3 mm 1 m/s 701 mmHg 96%
04:00 +13°C° 0.3 mm 1 m/s 701 mmHg 96%
05:00 +14°C° 0.4 mm 1 m/s 702 mmHg 96%
06:00 +15°C° 0.4 mm 1 m/s 702 mmHg 95%
07:00 +15°C° 0.4 mm 1 m/s 703 mmHg 95%
08:00 +16°C° 0.2 mm 1 m/s 704 mmHg 93%
09:00 +16°C° 0.2 mm 1 m/s 704 mmHg 90%
10:00 +18°C° 0.2 mm 1 m/s 704 mmHg 88%
11:00 +18°C° 0.2 mm 1 m/s 705 mmHg 86%
12:00 +18°C° 0.2 mm 1 m/s 705 mmHg 84%
13:00 +19°C° 0.2 mm 1 m/s 705 mmHg 82%
14:00 +20°C° 0.1 mm 1 m/s 705 mmHg 76%
15:00 +21°C° 0.1 mm 1 m/s 705 mmHg 71%
16:00 +21°C° 0.1 mm 1 m/s 705 mmHg 65%
17:00 +20°C° 0 mm 1 m/s 705 mmHg 71%
18:00 +19°C° 0 mm 1 m/s 704 mmHg 78%
19:00 +18°C° 0 mm 1 m/s 704 mmHg 84%
20:00 +16°C° 0 mm 1 m/s 705 mmHg 86%
21:00 +15°C° 0 mm 1 m/s 705 mmHg 88%
22:00 +15°C° 0 mm 1 m/s 705 mmHg 90%
23:00 +14°C° 0.1 mm 1 m/s 705 mmHg 91%

3 Agosto, Terça-feira

Tempo Temperatura Precipitação Vento Pressão Humidade
00:00 +14°C° 0.1 mm 1 m/s 705 mmHg 91%
01:00 +14°C° 0.1 mm 1 m/s 705 mmHg 92%
02:00 +13°C° 0.2 mm 1 m/s 705 mmHg 93%
03:00 +13°C° 0.2 mm 1 m/s 705 mmHg 93%
04:00 +13°C° 0.2 mm 1 m/s 705 mmHg 94%
05:00 +14°C° 0.5 mm 1 m/s 705 mmHg 94%
06:00 +15°C° 0.5 mm 1 m/s 705 mmHg 94%
07:00 +15°C° 0.5 mm 1 m/s 706 mmHg 93%
08:00 +18°C° 0.1 mm 1 m/s 706 mmHg 84%
09:00 +20°C° 0.1 mm 1 m/s 706 mmHg 76%
10:00 +22°C° 0.1 mm 1 m/s 706 mmHg 67%
11:00 +23°C° 0.2 mm 1 m/s 706 mmHg 63%
12:00 +24°C° 0.2 mm 1 m/s 705 mmHg 60%
13:00 +25°C° 0.2 mm 1 m/s 705 mmHg 57%
14:00 +24°C° 0.4 mm 1 m/s 705 mmHg 61%
15:00 +24°C° 0.4 mm 1 m/s 704 mmHg 66%
16:00 +23°C° 0.4 mm 2 m/s 704 mmHg 71%
17:00 +20°C° 0.6 mm 2 m/s 703 mmHg 77%
18:00 +18°C° 0.6 mm 2 m/s 703 mmHg 84%
19:00 +17°C° 0.6 mm 2 m/s 703 mmHg 90%
20:00 +16°C° 0.1 mm 2 m/s 703 mmHg 91%
21:00 +15°C° 0.1 mm 1 m/s 703 mmHg 93%
22:00 +15°C° 0.1 mm 1 m/s 703 mmHg 94%
23:00 +15°C° 0 mm 1 m/s 703 mmHg 93%

4 Agosto, Quarta-feira

Tempo Temperatura Precipitação Vento Pressão Humidade
00:00 +14°C° 0 mm 1 m/s 702 mmHg 92%
01:00 +14°C° 0 mm 1 m/s 702 mmHg 92%
02:00 +14°C° 0.2 mm 1 m/s 702 mmHg 93%
03:00 +14°C° 0.2 mm 1 m/s 702 mmHg 93%
04:00 +14°C° 0.2 mm 1 m/s 702 mmHg 94%
05:00 +15°C° 0.1 mm 1 m/s 702 mmHg 92%
06:00 +16°C° 0.1 mm 1 m/s 703 mmHg 90%
07:00 +16°C° 0.1 mm 0 m/s 703 mmHg 89%
08:00 +19°C° 0.4 mm 1 m/s 703 mmHg 84%
09:00 +20°C° 0.4 mm 1 m/s 703 mmHg 79%
10:00 +21°C° 0.4 mm 1 m/s 704 mmHg 74%
11:00 +22°C° 0.9 mm 1 m/s 704 mmHg 76%
12:00 +22°C° 0.9 mm 1 m/s 704 mmHg 77%
13:00 +22°C° 0.9 mm 1 m/s 704 mmHg 79%
14:00 +22°C° 0.6 mm 1 m/s 703 mmHg 78%
15:00 +22°C° 0.6 mm 1 m/s 703 mmHg 77%
16:00 +22°C° 0.6 mm 1 m/s 703 mmHg 76%
17:00 +21°C° 0.3 mm 1 m/s 703 mmHg 80%
18:00 +18°C° 0.3 mm 0 m/s 703 mmHg 84%
19:00 +17°C° 0.3 mm 0 m/s 703 mmHg 88%
20:00 +16°C° 0.1 mm 0 m/s 703 mmHg 90%
21:00 +16°C° 0.1 mm 1 m/s 703 mmHg 91%
22:00 +15°C° 0.1 mm 1 m/s 703 mmHg 93%
23:00 +15°C° 0.4 mm 1 m/s 703 mmHg 93%

5 Agosto, Quinta-feira

Tempo Temperatura Precipitação Vento Pressão Humidade
00:00 +14°C° 0.4 mm 1 m/s 703 mmHg 94%
01:00 +14°C° 0.4 mm 1 m/s 703 mmHg 95%
02:00 +14°C° 1.8 mm 1 m/s 702 mmHg 96%
03:00 +14°C° 1.8 mm 1 m/s 702 mmHg 97%
04:00 +14°C° 1.8 mm 1 m/s 702 mmHg 98%
05:00 +15°C° 3.4 mm 1 m/s 702 mmHg 98%
06:00 +15°C° 3.4 mm 1 m/s 702 mmHg 98%
07:00 +15°C° 3.4 mm 1 m/s 702 mmHg 97%
08:00 +16°C° 0.4 mm 1 m/s 702 mmHg 93%
09:00 +16°C° 0.4 mm 1 m/s 702 mmHg 89%
10:00 +18°C° 0.4 mm 1 m/s 702 mmHg 85%
11:00 +19°C° 0.2 mm 1 m/s 702 mmHg 78%
12:00 +20°C° 0.2 mm 2 m/s 702 mmHg 71%
13:00 +21°C° 0.2 mm 2 m/s 702 mmHg 64%
14:00 +21°C° 0.3 mm 2 m/s 702 mmHg 64%
15:00 +21°C° 0.3 mm 2 m/s 701 mmHg 64%
16:00 +21°C° 0.3 mm 2 m/s 701 mmHg 65%
17:00 +21°C° 0.1 mm 1 m/s 701 mmHg 72%
18:00 +19°C° 0.1 mm 1 m/s 701 mmHg 79%
19:00 +18°C° 0.1 mm 1 m/s 701 mmHg 87%
20:00 +16°C° 0 mm 1 m/s 701 mmHg 89%
21:00 +15°C° 0 mm 1 m/s 701 mmHg 91%
22:00 +14°C° 0 mm 1 m/s 701 mmHg 93%
23:00 +14°C° 0.1 mm 1 m/s 701 mmHg 94%
Mostrar mais

Necessitamos do seu Consentimento

A Meteoprog e os seus Fornecedores de Serviços podem armazenar e aceder a dados pessoais como cookies, identificadores do dispositivo ou outras tecnologias semelhantes existentes no seu dispositivo e processar estes dados para personalizar conteúdos e anúncios, assim como funcionalidades nas redes sociais e análise de tráfego.

  • Armazenar e/ou aceder a informações no seu dispositivo

    Os cookies, identificadores do dispositivo ou outras informações podem ser armazenados ou acedidos no seu dispositivo, para os fins acima indicados.

  • Anúncios e conteúdos personalizados, medição de anúncios e conteúdos, dados sobre o público-alvo e desenvolvimento de produtos

    Os anúncios e os conteúdos podem ser personalizados com base num perfil. Podem ser adicionados dados adicionais para uma maior personalização dos anúncios e dos conteúdos. A eficácia dos anúncios e dos conteúdos pode ser medida. Podem ser obtidas informações sobre o público que visualizou os anúncios e os conteúdos. Estes dados podem ser usados para desenvolver ou melhorar sistemas, softwares ou a experiência do utilizador.

Ao clicar em "Eu concordo”, permitirá o uso de cookies, identificadores do dispositivo e web beacons mencionados ou outras tecnologias semelhantes. As configurações do navegador do seu dispositivo podem ser alteradas.

Para certos fins, podem ser invocados interesses legítimos ao invés de consentimento. Pode ler mais informação sobre este assunto na nossa Política de Privacidade e Cookies.